Location: Moscow
(55.7500°N, 37.5830°E)
Time: 16:10:22
(UTC+03:00)

Transit 2A - Pass Details

Date: 06 December 2021
Orbit: 591 x 967 km, 66.7° (Epoch: 17 January)

Event Time Altitude Azimuth Distance (km) Brightness Sun altitude
Rises 04:01:03 0° 282° (WNW) 3,530 - -37.9°
Reaches altitude 10° 04:03:50 10° 292° (WNW) 2,633 - -37.5°
Maximum altitude 04:09:17 31° 354° (N) 1,615 - -36.7°
Exits shadow 04:10:48 28° 19° (NNE) 1,724 8.0 -36.5°
Drops below altitude 10° 04:14:56 10° 55° (NE) 2,716 9.5 -36.0°
Sets 04:17:51 0° 66° (ENE) 3,658 10.5 -35.6°
